[[{"header":{"parameterUnit":"m.s-1","parameterCategory":2,"la1":30.2991,"la2":30.254,"lo1":-89.0895,"lo2":-89.0444,"dy":0.0017,"dx":0.0017,"nx":28,"ny":28,"refTime":"2023-09-08T09:00:00:Z","depth":"0","parameterNumber":2,"parameterNumberName":"U-component_of_CURRENTS"},"data":[0,0,0,0,0,0,0,0,0,0,0,0,0,0,0,0,0,0,0,0,0,0,0,0,0,0,0,0,0,0,0,0,0,0,0,0,0,0,0,0,0,0,0,0,0,0,0,0,0,0,0,0,0,0,0,0,0,0,0.3713,0.3714,0,0.3729,0.3728,0.3728,0.373,0.373,0.373,0.373,0.3724,0.3723,0.3723,0,0,0,0,0,0,0,0,0,0,0,0,0,0.3712,0.3711,0.3713,0.3714,0.3714,0.3729,0.3728,0.3728,0.373,0.373,0.373,0.373,0.3724,0.3723,0.3723,0,0,0,0,0,0,0,0,0,0,0,0,0,0.3715,0.3711,0.3713,0.3719,0.372,0.3729,0.3728,0.3728,0.3729,0.373,0.373,0.373,0.3724,0.3724,0.3723,0.3716,0,0,0.3722,0.3722,0,0,0,0,0,0,0,0,0.3715,0.3715,0.3718,0.3719,0.372,0.373,0.3726,0.3724,0.3729,0.3722,0.373,0.373,0.3726,0.3725,0.3723,0.3716,0.3716,0.3722,0.3721,0.3721,0.3721,0,0,0,0,0,0,0,0.3715,0.3714,0.3716,0.3718,0.372,0.373,0.373,0.3726,0.372,0.3723,0.3724,0.3731,0.3726,0.3724,0.3723,0.3716,0.3722,0.3721,0.3721,0.3721,0.3747,0.3748,0,0,0,0,0,0,0.3718,0.3714,0.3716,0.3717,0.3721,0.373,0.373,0.3724,0.372,0.3721,0.3731,0.3731,0.3724,0.3724,0.3723,0.3788,0.3721,0.3721,0.3721,0.3746,0.3747,0.3748,0,0,0,0,0,0,0.3717,0.3717,0.3715,0.3719,0.372,0.373,0.3723,0.3724,0.3732,0.3727,0.3727,0.3739,0.3725,0.3724,0.3733,0.3785,0.3721,0.372,0.3745,0.3746,0.3748,0.3872,0,0,0,0,0,0,0.3717,0.3716,0.3712,0.3719,0.372,0.3732,0.3723,0.3725,0.3737,0.3738,0.3734,0.3733,0.3725,0.3734,0.3732,0.3783,0.372,0.3744,0.3746,0.3747,0.3866,0.3877,0.3886,0,0,0,0,0,0.3716,0.3703,0.3711,0.3712,0.3713,0.3733,0.3735,0.374,0.3738,0.3747,0.3745,0.3734,0.3744,0.3734,0.3732,0.3785,0.3743,0.3745,0.3747,0.3862,0.3875,0.3886,0,0,0,0,0,0,0.3684,0.3702,0.3712,0.37,0.3725,0.3735,0.3736,0.3747,0.3751,0.375,0.3742,0.3741,0.3778,0.3749,0.3738,0.3793,0.3743,0.3745,0.3831,0.3843,0.3853,0.3853,0.372,0,0,0,0,0,0.368,0.3682,0.3707,0.3699,0.3711,0.3728,0.3736,0.3748,0.3755,0.3758,0.3758,0.3758,0.3783,0.3786,0.3791,0.3811,0.3825,0.3841,0.3851,0.386,0.3857,0.3942,0.3961,0.3755,0.3755,0.3755,0,0,0.3659,0.3676,0.3671,0.3695,0.3708,0.374,0.3732,0.375,0.3786,0.3755,0.3788,0.3796,0.3795,0.3834,0.3846,0.3818,0.3928,0.3863,0.3871,0.3862,0.3946,0.3967,0.3985,0.3757,0.3757,0.3756,0,0,0.364,0.3641,0.3649,0.368,0.3719,0.374,0.3752,0.3777,0.3798,0.3832,0.3835,0.3868,0.3876,0.3903,0.3916,0.3975,0.3984,0.3976,0.4026,0.411,0.4129,0.4145,0.4207,0.4228,0.3975,0.3976,0.3976,0,0.3621,0.364,0.3654,0.3688,0.3722,0.3747,0.3785,0.3811,0.384,0.3869,0.3854,0.3918,0.3917,0.3995,0.4015,0.4004,0.4041,0.399,0.4128,0.4144,0.4159,0.4218,0.424,0.3982,0.3981,0.3981,0.398,0,0.3628,0.365,0.3658,0.3718,0.3754,0.3786,0.3842,0.388,0.391,0.394,0.4016,0.4026,0.4065,0.4081,0.4066,0.4173,0.4163,0.4144,0.4108,0.4188,0.4244,0.4264,0.3991,0.3989,0.3987,0.3985,0,0,0.3578,0.365,0.3657,0.3704,0.3781,0.3815,0.3887,0.3966,0.4027,0.406,0.4142,0.4187,0.4193,0.4205,0.4211,0.427,0.4411,0.4249,0.425,0.4328,0.4597,0.4528,0.4543,0.4431,0.4435,0.4438,0.4601,0,0.3591,0.3653,0.3695,0.3774,0.3818,0.3886,0.3957,0.4033,0.4095,0.4174,0.4216,0.4282,0.4244,0.428,0.434,0.439,0.4467,0.4367,0.4489,0.4492,0.4438,0.4565,0.4306,0.4425,0.4621,0.4624,0.4626,0,0.3602,0.365,0.3718,0.383,0.3856,0.3909,0.4047,0.4116,0.423,0.4281,0.4354,0.4382,0.4472,0.443,0.4573,0.4516,0.4566,0.46,0.4607,0.4508,0.4461,0.437,0.4454,0.4352,0.4657,0.4655,0.4652,0,0.3584,0.3675,0.3734,0.3771,0.3891,0.3947,0.4018,0.4139,0.4215,0.4349,0.4421,0.4513,0.458,0.4656,0.4711,0.4663,0.4872,0.4815,0.4807,0.4802,0.4584,0.4553,0.459,0.4945,0.4944,0.4944,0.4943,0,0.3596,0.3645,0.3728,0.3766,0.3849,0.3943,0.405,0.4139,0.4274,0.4363,0.4466,0.4551,0.4645,0.4756,0.4785,0.4867,0.4943,0.4845,0.4855,0.4618,0.459,0.4487,0.4444,0.495,0.4949,0.4947,0.4946,0,0.3568,0.3621,0.3695,0.3809,0.3839,0.3902,0.4039,0.4118,0.4267,0.4395,0.4442,0.4613,0.4758,0.4861,0.5,0.4965,0.49,0.5059,0.4764,0.4736,0.4566,0.4539,0.4416,0.4294,0.5055,0.5055,0.5054,0,0.3555,0.359,0.3695,0.3725,0.3771,0.3866,0.3925,0.4081,0.4158,0.4409,0.4455,0.4666,0.4764,0.4965,0.4943,0.5019,0.4917,0.4843,0.4689,0.4552,0.4532,0.4355,0.4249,0.4458,0.4453,0.4448,0.4445,0,0.354,0.3577,0.3633,0.3681,0.3736,0.3803,0.3895,0.3953,0.4142,0.4261,0.4408,0.452,0.4708,0.4655,0.4789,0.4789,0.4572,0.4755,0.4692,0.4141,0.3871,0.3758,0.4358,0.4406,0.441,0.4413,0.4415,0.4417,0.3514,0.354,0.3599,0.363,0.3678,0.3712,0.3716,0.3822,0.3918,0.404,0.4218,0.4298,0.4381,0.4493,0.4485,0.4308,0.4324,0.4161,0.4167,0.4024,0.3802,0.432,0.433,0.4333,0.4336,0.4338,0.434,0,0.347,0.3502,0.3539,0.3562,0.3547,0.3609,0.3663,0.3633,0.3656,0.3818,0.3895,0.3918,0.3904,0.3973,0.3876,0.3736,0.3528,0.3662,0.3342,0.3291,0.3821,0.369,0.3463,0.3463,0.3463,0.3463,0.3463,0.3464,0.3454,0.3458,0.3466,0.3408,0.3409,0.3341,0.3329,0.3302,0.3356,0.3344,0.3337,0.3417,0.3564,0.3566,0.3428,0.3344,0.3122,0.2931,0.3021,0.3389,0.3434,0.3477,0.3344,0.3049,0.3048,0.227,0.2264,0.226]},{"header":{"parameterUnit":"m.s-1","parameterCategory":2,"la1":30.2991,"la2":30.254,"lo1":-89.0895,"lo2":-89.0444,"dy":0.0017,"dx":0.0017,"nx":28,"ny":28,"refTime":"2023-09-08T09:00:00:Z","depth":"0","parameterNumber":3,"parameterNumberName":"V-component_of_CURRENTS"},"data":[0,0,0,0,0,0,0,0,0,0,0,0,0,0,0,0,0,0,0,0,0,0,0,0,0,0,0,0,0,0,0,0,0,0,0,0,0,0,0,0,0,0,0,0,0,0,0,0,0,0,0,0,0,0,0,0,0,0,-0.0066,-0.0067,0,-0.0105,-0.0105,-0.0105,-0.0143,-0.0143,-0.0144,-0.0144,-0.0237,-0.0239,-0.0241,0,0,0,0,0,0,0,0,0,0,0,0,0,-0.0067,-0.0067,-0.0066,-0.0067,-0.0067,-0.0104,-0.0105,-0.0106,-0.0143,-0.0144,-0.0144,-0.0145,-0.0236,-0.0239,-0.0241,0,0,0,0,0,0,0,0,0,0,0,0,0,-0.0082,-0.0067,-0.0066,-0.009,-0.0093,-0.0104,-0.0105,-0.0106,-0.0143,-0.0144,-0.0144,-0.0145,-0.0235,-0.0238,-0.0241,-0.0247,0,0,-0.0251,-0.0252,0,0,0,0,0,0,0,0,-0.0082,-0.0082,-0.0086,-0.0088,-0.0091,-0.0119,-0.0139,-0.0155,-0.0143,-0.0124,-0.0144,-0.0145,-0.0202,-0.0208,-0.0213,-0.0251,-0.0255,-0.0251,-0.0253,-0.0254,-0.0255,0,0,0,0,0,0,0,-0.008,-0.0081,-0.0082,-0.0086,-0.009,-0.0113,-0.0116,-0.0143,-0.016,-0.0126,-0.0129,-0.0132,-0.0204,-0.021,-0.0216,-0.0256,-0.0251,-0.0254,-0.0256,-0.0257,-0.0349,-0.035,0,0,0,0,0,0,-0.0072,-0.008,-0.0081,-0.0083,-0.0088,-0.0112,-0.0115,-0.011,-0.0159,-0.0166,-0.0131,-0.0134,-0.0205,-0.0212,-0.0219,-0.0255,-0.0254,-0.0257,-0.0259,-0.0348,-0.0349,-0.035,0,0,0,0,0,0,-0.0071,-0.0071,-0.0079,-0.0083,-0.0085,-0.0111,-0.0105,-0.011,-0.0118,-0.0162,-0.0171,-0.0134,-0.0205,-0.0215,-0.0248,-0.0258,-0.0258,-0.0261,-0.0348,-0.0349,-0.035,-0.031,0,0,0,0,0,0,-0.0071,-0.007,-0.0063,-0.0082,-0.0085,-0.0082,-0.0105,-0.0111,-0.0119,-0.0122,-0.0168,-0.0177,-0.0207,-0.0243,-0.0251,-0.0262,-0.0264,-0.0347,-0.0348,-0.0349,-0.031,-0.0309,-0.0308,0,0,0,0,0,-0.0071,-0.0053,-0.0062,-0.0062,-0.0073,-0.0081,-0.0085,-0.0106,-0.0118,-0.0117,-0.0153,-0.0175,-0.0256,-0.0245,-0.0254,-0.0267,-0.0346,-0.0348,-0.0349,-0.0311,-0.0309,-0.0308,0,0,0,0,0,0,-0.004,-0.0056,-0.0066,-0.0051,-0.0065,-0.0087,-0.0084,-0.0102,-0.0127,-0.0132,-0.0177,-0.0188,-0.0223,-0.025,-0.0236,-0.0299,-0.0308,-0.0311,-0.0275,-0.0275,-0.0274,-0.0233,-0.0266,0,0,0,0,0,-0.0031,-0.0027,-0.0045,-0.0032,-0.0036,-0.006,-0.0066,-0.0081,-0.0106,-0.0117,-0.0151,-0.0193,-0.0235,-0.0256,-0.0292,-0.0319,-0.0323,-0.0337,-0.0336,-0.0335,-0.0309,-0.034,-0.0338,-0.0354,-0.0354,-0.0354,0,0,-0.0015,-0.0022,-0.0019,-0.0027,-0.0037,-0.0037,-0.0065,-0.0067,-0.0071,-0.0124,-0.014,-0.0187,-0.0241,-0.0277,-0.0295,-0.03,-0.0331,-0.0336,-0.0335,-0.0309,-0.0341,-0.0339,-0.0337,-0.0355,-0.0355,-0.0355,0,0,0.0021,0.0014,0.0028,0.0018,0.0005,-0.0013,-0.0013,-0.0036,-0.0051,-0.0073,-0.0121,-0.0165,-0.022,-0.0262,-0.0292,-0.0304,-0.0323,-0.0329,-0.0292,-0.0322,-0.0321,-0.0319,-0.0308,-0.0306,-0.033,-0.033,-0.033,0,0.0042,0.0056,0.0032,0.0041,0.0037,-0.0,0.0012,-0.0007,-0.0041,-0.0049,-0.0072,-0.0158,-0.021,-0.0256,-0.0268,-0.03,-0.0306,-0.0291,-0.0318,-0.0317,-0.0316,-0.0305,-0.0303,-0.0329,-0.0329,-0.0329,-0.0329,0,0.0084,0.0092,0.0101,0.0096,0.0088,0.0093,0.0062,0.0052,0.0024,0.0001,-0.0042,-0.0112,-0.0158,-0.02,-0.0239,-0.0269,-0.027,-0.0311,-0.0314,-0.0312,-0.0301,-0.0299,-0.0326,-0.0327,-0.0327,-0.0328,0,0,0.0136,0.0132,0.0135,0.0141,0.0116,0.0118,0.0109,0.0093,0.0097,0.0046,0.0046,-0.005,-0.0082,-0.0117,-0.0183,-0.022,-0.0229,-0.0258,-0.026,-0.023,-0.0263,-0.0217,-0.0211,-0.0279,-0.0279,-0.0279,-0.0252,0,0.0176,0.0207,0.0187,0.021,0.0221,0.0184,0.0183,0.0161,0.0132,0.0123,0.0049,0.0022,-0.0053,-0.0076,-0.0126,-0.0197,-0.0225,-0.0229,-0.0282,-0.0282,-0.023,-0.0208,-0.0174,-0.0144,-0.0251,-0.0251,-0.025,0,0.022,0.0233,0.0268,0.0269,0.0272,0.0281,0.0275,0.0268,0.0237,0.0218,0.0176,0.0126,0.0074,0.0004,-0.0091,-0.009,-0.0163,-0.0224,-0.0226,-0.0189,-0.0233,-0.0169,-0.0137,-0.0295,-0.0248,-0.0249,-0.0249,0,0.0269,0.0286,0.0318,0.0319,0.0316,0.033,0.0327,0.0304,0.0324,0.0289,0.0313,0.0222,0.021,0.0098,-0.0007,-0.0055,-0.0094,-0.0181,-0.0203,-0.02,-0.018,-0.0175,-0.029,-0.0245,-0.0245,-0.0245,-0.0246,0,0.0314,0.0339,0.0351,0.0369,0.0421,0.0389,0.0439,0.042,0.0426,0.0489,0.0378,0.0423,0.0231,0.0188,0.0053,-0.0029,-0.0042,-0.0167,-0.0188,-0.0164,-0.0158,-0.0302,-0.0415,-0.0244,-0.0245,-0.0245,-0.0245,0,0.0366,0.0369,0.0411,0.043,0.045,0.0486,0.054,0.0581,0.0565,0.065,0.0658,0.0591,0.0551,0.0387,0.023,0.0083,-0.0105,-0.0064,0.0007,-0.0007,-0.02,-0.0311,-0.0411,-0.0484,-0.0095,-0.0093,-0.0092,0,0.0395,0.0423,0.0475,0.0525,0.0545,0.0603,0.0661,0.066,0.0724,0.0785,0.0853,0.0826,0.0868,0.0668,0.0406,0.0212,0.0001,0.006,-0.0043,-0.0174,-0.0316,-0.0397,-0.0459,-0.0001,0.0001,0.0003,0.0004,0,0.0455,0.0475,0.0519,0.0624,0.0701,0.0782,0.0869,0.0947,0.0984,0.1088,0.1218,0.1258,0.1079,0.09,0.0595,0.0419,-0.0046,0.0084,-0.0091,-0.0266,-0.0323,-0.0413,-0.0032,0.0017,0.0016,0.0015,0.0014,0.0013,0.0515,0.0562,0.0634,0.0736,0.0832,0.096,0.1055,0.1183,0.1341,0.1531,0.1534,0.1673,0.1324,0.0931,0.0649,0.0129,0.008,-0.0063,-0.0186,-0.0253,-0.0332,0.0114,0.0156,0.0155,0.0155,0.0154,0.0154,0,0.0593,0.0649,0.0745,0.0873,0.0999,0.1026,0.12,0.1324,0.1564,0.1788,0.1952,0.1918,0.1491,0.0991,0.0279,-0.0092,-0.0265,-0.0309,-0.0454,-0.0509,-0.0138,-0.0143,-0.0115,-0.0115,-0.0115,-0.0115,-0.0115,-0.0115,0.0642,0.0745,0.0789,0.0998,0.1097,0.1272,0.1381,0.1594,0.1788,0.2106,0.2259,0.2333,0.1947,0.0661,-0.0225,-0.0445,-0.0722,-0.0747,-0.0908,-0.0703,-0.0691,-0.068,-0.0711,-0.0803,-0.0804,-0.1219,-0.1224,-0.1227]}],[{"header":{"parameterUnit":"m.s-1","parameterCategory":2,"la1":30.2991,"la2":30.254,"lo1":-89.0895,"lo2":-89.0444,"dy":0.0017,"dx":0.0017,"nx":28,"ny":28,"refTime":"2023-09-08T09:00:00:Z","depth":"2","parameterNumber":2,"parameterNumberName":"U-component_of_CURRENTS"},"data":[0,0,0,0,0,0,0,0,0,0,0,0,0,0,0,0,0,0,0,0,0,0,0,0,0,0,0,0,0,0,0,0,0,0,0,0,0,0,0,0,0,0,0,0,0,0,0,0,0,0,0,0,0,0,0,0,0,0,0.2656,0.2656,0,0.2717,0.2717,0.2718,0.2753,0.2753,0.2753,0.2753,0.2727,0.2727,0.2726,0,0,0,0,0,0,0,0,0,0,0,0,0,0.2625,0.2625,0.2655,0.2656,0.2657,0.2717,0.2717,0.2718,0.2753,0.2753,0.2753,0.2754,0.2728,0.2727,0.2726,0,0,0,0,0,0,0,0,0,0,0,0,0,0.2657,0.2625,0.2655,0.2682,0.2685,0.2716,0.2717,0.2718,0.2753,0.2753,0.2753,0.2754,0.2728,0.2727,0.2726,0.2712,0,0,0.2722,0.2721,0,0,0,0,0,0,0,0,0.2655,0.2658,0.2677,0.268,0.2684,0.2728,0.2697,0.2712,0.2753,0.2726,0.2753,0.2754,0.272,0.2719,0.273,0.271,0.2709,0.2721,0.2721,0.272,0.272,0,0,0,0,0,0,0,0.2653,0.2656,0.2679,0.2678,0.2682,0.2711,0.2715,0.2701,0.2718,0.2729,0.2732,0.2739,0.2721,0.2732,0.273,0.2709,0.2721,0.272,0.272,0.2719,0.2775,0.2777,0,0,0,0,0,0,0.2643,0.2653,0.2677,0.2681,0.2671,0.2711,0.2715,0.2713,0.2721,0.2723,0.2739,0.2741,0.2734,0.2731,0.2729,0.2779,0.272,0.2719,0.2718,0.2773,0.2775,0.2778,0,0,0,0,0,0,0.2642,0.2644,0.2675,0.267,0.2676,0.2711,0.2708,0.2714,0.2743,0.273,0.273,0.2764,0.2734,0.2731,0.274,0.2776,0.2718,0.2717,0.277,0.2774,0.2777,0.2836,0,0,0,0,0,0,0.2641,0.2643,0.2646,0.2669,0.2676,0.2702,0.2708,0.2715,0.2747,0.275,0.2751,0.2748,0.2734,0.2742,0.2739,0.2773,0.2716,0.2767,0.2772,0.2776,0.2832,0.2841,0.285,0,0,0,0,0,0.2639,0.2642,0.2645,0.2649,0.2675,0.2703,0.271,0.2735,0.2748,0.2762,0.277,0.2749,0.2768,0.2742,0.2738,0.2772,0.2765,0.277,0.2775,0.2827,0.2839,0.285,0,0,0,0,0,0,0.2632,0.2646,0.2651,0.2657,0.2682,0.2709,0.2728,0.2746,0.2767,0.277,0.2761,0.2759,0.2784,0.2773,0.2746,0.2806,0.2769,0.2774,0.2811,0.2822,0.2831,0.2849,0.2715,0,0,0,0,0,0.263,0.2633,0.2655,0.2662,0.2675,0.2705,0.2723,0.274,0.2758,0.277,0.277,0.2781,0.28,0.2806,0.2808,0.2828,0.2842,0.2856,0.2865,0.2873,0.2889,0.2946,0.2962,0.2795,0.2795,0.2795,0,0,0.2624,0.2637,0.2637,0.2661,0.2682,0.2715,0.2717,0.2747,0.278,0.2759,0.2797,0.2802,0.2812,0.2844,0.2856,0.2839,0.2929,0.2879,0.2885,0.2897,0.2953,0.2969,0.2984,0.2798,0.2798,0.2797,0,0,0.2624,0.2632,0.2639,0.2665,0.27,0.2726,0.274,0.2772,0.2793,0.2828,0.2833,0.2863,0.2879,0.2901,0.2915,0.2976,0.2971,0.2983,0.3045,0.3101,0.3115,0.3127,0.3165,0.3181,0.2993,0.2993,0.2993,0,0.2618,0.2637,0.2648,0.2674,0.2702,0.2737,0.2766,0.2798,0.2831,0.2853,0.2849,0.2918,0.2914,0.2978,0.3009,0.2996,0.3025,0.2996,0.3112,0.3125,0.3136,0.3172,0.3188,0.2996,0.2996,0.2995,0.2995,0,0.2634,0.2656,0.2669,0.2713,0.274,0.2776,0.2817,0.2854,0.2888,0.2919,0.298,0.2993,0.3044,0.3051,0.3051,0.3141,0.3132,0.311,0.3079,0.3157,0.319,0.3205,0.3001,0.3,0.2999,0.2998,0,0,0.2606,0.2667,0.2673,0.2695,0.2768,0.2784,0.2853,0.2917,0.2971,0.3011,0.3088,0.3129,0.315,0.317,0.3176,0.3225,0.3327,0.3215,0.3217,0.3246,0.3454,0.3368,0.3376,0.3332,0.3335,0.3337,0.3442,0,0.2622,0.2667,0.27,0.2752,0.2782,0.2839,0.2897,0.2955,0.302,0.3101,0.3147,0.3215,0.3193,0.3233,0.3284,0.3319,0.3373,0.3301,0.3382,0.3384,0.3292,0.3393,0.3112,0.3176,0.3458,0.346,0.3462,0,0.2631,0.2664,0.2713,0.277,0.2787,0.2832,0.2932,0.2987,0.3111,0.316,0.3253,0.3301,0.3399,0.3368,0.3477,0.3437,0.3464,0.3478,0.3482,0.3393,0.3328,0.3146,0.3193,0.3488,0.3486,0.3484,0.3482,0,0.2601,0.2666,0.2704,0.273,0.2811,0.2847,0.2901,0.3009,0.3073,0.322,0.3298,0.3402,0.3486,0.3536,0.3591,0.3551,0.3706,0.3644,0.3588,0.3581,0.3353,0.3321,0.3732,0.3732,0.3732,0.3731,0.3731,0,0.2602,0.2625,0.2696,0.2718,0.2769,0.2825,0.291,0.2982,0.3122,0.3206,0.3331,0.3421,0.354,0.3643,0.3652,0.3684,0.376,0.3627,0.3617,0.3365,0.3334,0.3606,0.359,0.3735,0.3734,0.3734,0.3733,0,0.2547,0.2604,0.2646,0.2729,0.2757,0.2791,0.2911,0.298,0.311,0.3242,0.3302,0.3486,0.3595,0.3695,0.3798,0.3762,0.3791,0.3781,0.3477,0.3428,0.3607,0.3593,0.3716,0.3714,0.3712,0.3711,0.371,0,0.2522,0.2547,0.2634,0.2668,0.2708,0.2779,0.2838,0.2966,0.3039,0.3249,0.3302,0.3492,0.3562,0.37,0.3696,0.372,0.3788,0.347,0.3327,0.3635,0.3613,0.3601,0.359,0.305,0.3043,0.3038,0.3034,0,0.2479,0.2521,0.2551,0.2626,0.2688,0.2735,0.2819,0.2869,0.302,0.3116,0.3225,0.3306,0.3463,0.3371,0.3453,0.3414,0.3437,0.3361,0.3794,0.3093,0.3014,0.299,0.2999,0.2987,0.2992,0.2995,0.2998,0.3,0.2444,0.2456,0.2519,0.2562,0.2626,0.2645,0.2639,0.2724,0.2784,0.2867,0.3036,0.3057,0.3134,0.3087,0.3007,0.2971,0.3191,0.3042,0.3055,0.3074,0.2975,0.2897,0.2829,0.2832,0.2835,0.2838,0.284,0,0.2379,0.2405,0.2453,0.248,0.2481,0.2561,0.2586,0.2539,0.2515,0.2647,0.2701,0.2537,0.25,0.2578,0.2445,0.2451,0.2396,0.2349,0.2249,0.2299,0.2344,0.2202,0.1853,0.185,0.1846,0.1843,0,0,0.2351,0.2342,0.2349,0.2314,0.2341,0.2283,0.226,0.2206,0.2226,0.2176,0.2187,0.2404,0.251,0.215,0.2109,0.1953,0.2099,0.1874,0.2676,0.261,0.2649,0.2767,0.2611,0,0,0,0,0]},{"header":{"parameterUnit":"m.s-1","parameterCategory":2,"la1":30.2991,"la2":30.254,"lo1":-89.0895,"lo2":-89.0444,"dy":0.0017,"dx":0.0017,"nx":28,"ny":28,"refTime":"2023-09-08T09:00:00:Z","depth":"2","parameterNumber":3,"parameterNumberName":"V-component_of_CURRENTS"},"data":[0,0,0,0,0,0,0,0,0,0,0,0,0,0,0,0,0,0,0,0,0,0,0,0,0,0,0,0,0,0,0,0,0,0,0,0,0,0,0,0,0,0,0,0,0,0,0,0,0,0,0,0,0,0,0,0,0,0,0.018,0.018,0,0.0131,0.0131,0.013,0.0092,0.0092,0.0092,0.0092,0.0031,0.0029,0.0028,0,0,0,0,0,0,0,0,0,0,0,0,0,0.0194,0.0194,0.018,0.018,0.0179,0.0131,0.013,0.013,0.0092,0.0092,0.0092,0.0092,0.0031,0.0029,0.0028,0,0,0,0,0,0,0,0,0,0,0,0,0,0.0169,0.0194,0.018,0.0156,0.0154,0.0131,0.013,0.0129,0.0092,0.0092,0.0092,0.0092,0.0032,0.003,0.0027,0.002,0,0,0.0021,0.002,0,0,0,0,0,0,0,0,0.0171,0.0169,0.016,0.0158,0.0155,0.0119,0.0113,0.0093,0.0092,0.0114,0.0092,0.0091,0.006,0.0056,0.0045,0.0017,0.0015,0.0021,0.0019,0.0018,0.0018,0,0,0,0,0,0,0,0.0173,0.017,0.0159,0.016,0.0156,0.0132,0.0128,0.0109,0.0088,0.0112,0.011,0.0107,0.0059,0.0047,0.0043,0.0014,0.0021,0.0019,0.0017,0.0017,-0.0034,-0.0034,0,0,0,0,0,0,0.0185,0.0172,0.0161,0.0158,0.0164,0.0132,0.0128,0.0129,0.0088,0.0082,0.0107,0.0105,0.0051,0.0046,0.0041,0.004,0.0018,0.0016,0.0015,-0.0034,-0.0034,-0.0034,0,0,0,0,0,0,0.0186,0.0185,0.0163,0.0165,0.0161,0.0133,0.0134,0.0129,0.0119,0.0085,0.0078,0.0103,0.0051,0.0044,0.0029,0.0037,0.0015,0.0013,-0.0034,-0.0034,-0.0034,0.0032,0,0,0,0,0,0,0.0186,0.0185,0.0188,0.0166,0.0161,0.0157,0.0135,0.0128,0.0118,0.0115,0.008,0.0073,0.005,0.0033,0.0027,0.0034,0.0012,-0.0034,-0.0034,-0.0034,0.003,0.0034,0.0038,0,0,0,0,0,0.0187,0.0196,0.0189,0.0187,0.0167,0.0158,0.0153,0.013,0.0118,0.0119,0.0095,0.0075,0.0027,0.0031,0.0024,0.0031,-0.0034,-0.0034,-0.0034,0.0028,0.0034,0.0038,0,0,0,0,0,0,0.0204,0.0193,0.0184,0.0189,0.0178,0.0152,0.0149,0.0135,0.0115,0.0113,0.0078,0.0071,0.0058,0.0034,0.0039,0.0014,-0.0008,-0.001,0.0041,0.0046,0.005,0.0074,0.001,0,0,0,0,0,0.0211,0.0215,0.0198,0.0204,0.0198,0.0174,0.0167,0.0156,0.0137,0.0127,0.0102,0.0074,0.0052,0.0042,0.0017,0.0009,-0.0013,0.0005,0.0009,0.0013,0.0027,0.0002,0.0006,-0.0035,-0.0035,-0.0035,0,0,0.0218,0.0214,0.0215,0.0208,0.0194,0.0199,0.0169,0.0166,0.0173,0.0124,0.0123,0.0089,0.0052,0.0041,0.0033,0.0023,0.0011,0.0013,0.0017,0.0028,0.0003,0.0007,0.0011,-0.0035,-0.0035,-0.0035,0,0,0.0243,0.0232,0.0246,0.0241,0.0232,0.0219,0.0221,0.0201,0.0194,0.0187,0.0152,0.0128,0.0094,0.0072,0.0055,0.0066,0.0032,0.0051,0.0095,0.0071,0.0075,0.0078,0.0051,0.0051,0.0055,0.0055,0.0055,0,0.0255,0.0271,0.0248,0.0262,0.0268,0.0233,0.0254,0.024,0.0219,0.0223,0.0197,0.0149,0.0111,0.0104,0.0102,0.0078,0.0057,0.0083,0.0079,0.0081,0.0083,0.0054,0.0054,0.0058,0.0058,0.0058,0.0057,0,0.029,0.0304,0.0311,0.032,0.0322,0.0333,0.0318,0.0318,0.0301,0.0287,0.0274,0.0219,0.0194,0.017,0.0138,0.0133,0.011,0.0088,0.0073,0.0092,0.0059,0.0058,0.0063,0.0062,0.0061,0.006,0,0,0.0322,0.0336,0.034,0.0366,0.0358,0.0373,0.0383,0.0392,0.0416,0.037,0.039,0.0328,0.0293,0.0271,0.0221,0.0194,0.0176,0.015,0.0148,0.0135,0.0122,0.0095,0.009,0.0154,0.0154,0.0154,0.0093,0,0.0361,0.041,0.0403,0.0455,0.048,0.0464,0.0489,0.0492,0.0476,0.0481,0.0418,0.0408,0.0333,0.032,0.028,0.0209,0.0175,0.0195,0.0096,0.0093,0.0076,0.0088,0.0111,0.0058,0.0091,0.0091,0.009,0,0.0402,0.0434,0.0491,0.0548,0.056,0.0582,0.0627,0.0647,0.0634,0.0625,0.0587,0.0528,0.0475,0.0407,0.0297,0.0314,0.0225,0.0161,0.0156,0.011,0.0063,0.0043,0.0052,0.0087,0.0087,0.0087,0.0087,0,0.0453,0.0502,0.0557,0.0571,0.0617,0.0649,0.0678,0.0689,0.073,0.0709,0.0727,0.0639,0.0613,0.0491,0.0337,0.032,0.0216,0.0175,0.0066,0.0062,0.0052,0.0048,0.0098,0.0098,0.0098,0.0098,0.0098,0,0.0504,0.0552,0.0587,0.062,0.0707,0.0717,0.0802,0.0816,0.0845,0.0908,0.0805,0.0824,0.0633,0.0539,0.0382,0.0225,0.0248,0.0081,0.0049,0.0074,0.0072,0.0074,0.0073,0.0096,0.0096,0.0097,0.0097,0,0.0553,0.0569,0.0642,0.0704,0.0731,0.0796,0.089,0.0951,0.097,0.1045,0.1042,0.0967,0.0847,0.0647,0.0454,0.0303,0.0141,0.0075,0.0112,0.0086,-0.0012,-0.001,-0.005,-0.0051,-0.0052,-0.0053,-0.0054,0,0.0582,0.0619,0.0708,0.0759,0.0788,0.0881,0.0953,0.1006,0.1077,0.1141,0.1186,0.1089,0.1035,0.0738,0.0453,0.018,0.0139,0.0018,-0.0018,0.0002,-0.0025,-0.0021,-0.0018,-0.0011,-0.0011,-0.0011,-0.0012,0,0.0637,0.0663,0.073,0.0837,0.0915,0.102,0.1124,0.1197,0.1276,0.1336,0.1395,0.1353,0.1082,0.0807,0.043,0.024,0.0059,0.0001,0.0026,0.0024,0.0034,0.0009,0.0012,-0.0015,-0.0014,-0.0014,-0.0014,-0.0014,0.068,0.0734,0.0818,0.0924,0.1018,0.1143,0.1238,0.1345,0.1466,0.1557,0.153,0.1477,0.1186,0.0694,0.0379,0.0037,0.0049,-0.0079,-0.0076,-0.0072,-0.0056,-0.0048,-0.011,-0.011,-0.011,-0.0111,-0.0111,0,0.0733,0.0798,0.0899,0.1025,0.1135,0.1181,0.1344,0.1432,0.1567,0.1633,0.1662,0.1379,0.1082,0.0739,0.0243,-0.0048,-0.0073,-0.0152,-0.0109,-0.0104,-0.01,-0.0084,-0.0146,-0.0147,-0.0148,-0.0149,0,0,0.076,0.0861,0.0915,0.1095,0.1189,0.1338,0.1431,0.155,0.1628,0.1673,0.1639,0.1575,0.118,0.0817,0.0425,0.0141,0.008,0.0074,0.0134,0.0236,0.0244,-0.0028,0.0006,0,0,0,0,0]}],[{"header":{"parameterUnit":"m.s-1","parameterCategory":2,"la1":30.2991,"la2":30.254,"lo1":-89.0895,"lo2":-89.0444,"dy":0.0017,"dx":0.0017,"nx":28,"ny":28,"refTime":"2023-09-08T09:00:00:Z","depth":"4","parameterNumber":2,"parameterNumberName":"U-component_of_CURRENTS"},"data":[0,0,0,0,0,0,0,0,0,0,0,0,0,0,0,0,0,0,0,0,0,0,0,0,0,0,0,0,0,0,0,0,0,0,0,0,0,0,0,0,0,0,0,0,0,0,0,0,0,0,0,0,0,0,0,0,0,0,0.1584,0.1585,0,0.1633,0.1633,0.1634,0.1681,0.1681,0.1682,0.1683,0.1739,0.174,0.1741,0,0,0,0,0,0,0,0,0,0,0,0,0,0.1519,0.1519,0.1584,0.1585,0.1586,0.1633,0.1633,0.1634,0.168,0.1681,0.1682,0.1683,0.1739,0.174,0.1741,0,0,0,0,0,0,0,0,0,0,0,0,0,0.1553,0.152,0.1584,0.1616,0.1619,0.1633,0.1633,0.1634,0.168,0.1681,0.1683,0.1684,0.1739,0.174,0.1741,0.1726,0,0,0.1745,0.1745,0,0,0,0,0,0,0,0,0.1551,0.1556,0.1611,0.1614,0.1618,0.1653,0.1631,0.1666,0.168,0.1655,0.1683,0.1684,0.1711,0.1715,0.1719,0.1728,0.1731,0.1745,0.1745,0.1746,0.1746,0,0,0,0,0,0,0,0.1549,0.1554,0.1602,0.1611,0.1616,0.1623,0.163,0.1638,0.1675,0.1658,0.1662,0.1669,0.1713,0.1718,0.1721,0.1732,0.1745,0.1746,0.1746,0.1747,0.1823,0.1825,0,0,0,0,0,0,0.1546,0.1551,0.16,0.1604,0.1589,0.1624,0.1631,0.1639,0.1675,0.1682,0.1668,0.1671,0.1715,0.1719,0.1723,0.1791,0.1746,0.1747,0.1748,0.1822,0.1824,0.1825,0,0,0,0,0,0,0.1544,0.155,0.1598,0.158,0.1587,0.1624,0.1633,0.164,0.1677,0.1684,0.1691,0.1702,0.1716,0.1721,0.176,0.179,0.1748,0.1749,0.1821,0.1823,0.1824,0.1873,0,0,0,0,0,0,0.1542,0.1549,0.1572,0.158,0.1588,0.1624,0.1633,0.164,0.1678,0.1684,0.1714,0.1719,0.1718,0.1758,0.1761,0.1791,0.175,0.1819,0.1822,0.1824,0.187,0.1876,0.1882,0,0,0,0,0,0.154,0.1559,0.1573,0.158,0.1613,0.1625,0.163,0.1658,0.1679,0.1696,0.1723,0.172,0.1776,0.176,0.1764,0.1794,0.1818,0.1821,0.1824,0.1867,0.1875,0.1882,0,0,0,0,0,0,0.1542,0.1566,0.1581,0.1609,0.1625,0.1634,0.1659,0.1675,0.1709,0.1729,0.1733,0.174,0.1784,0.1783,0.1765,0.1824,0.1797,0.1801,0.1829,0.1837,0.1843,0.1856,0.1751,0,0,0,0,0,0.1552,0.1576,0.1593,0.1617,0.163,0.1651,0.1668,0.1687,0.1709,0.1727,0.1749,0.1774,0.1792,0.1811,0.1824,0.1856,0.1867,0.1879,0.1885,0.189,0.1904,0.194,0.195,0.1835,0.1835,0.1835,0,0,0.1559,0.1577,0.1592,0.162,0.1639,0.1656,0.1665,0.1699,0.1723,0.1726,0.1779,0.1796,0.1805,0.1842,0.1862,0.185,0.1932,0.1894,0.1898,0.191,0.1944,0.1955,0.1965,0.1837,0.1837,0.1836,0,0,0.1568,0.1603,0.1622,0.1639,0.1674,0.1685,0.1702,0.1731,0.1761,0.1802,0.1814,0.1854,0.1882,0.1898,0.1906,0.1954,0.1961,0.1963,0.2009,0.2044,0.2054,0.2062,0.2101,0.2113,0.1969,0.1969,0.1969,0,0.158,0.16,0.1628,0.1647,0.1666,0.17,0.172,0.1748,0.179,0.1822,0.1829,0.1899,0.1907,0.1953,0.1974,0.1969,0.1994,0.1978,0.2052,0.2061,0.2069,0.2107,0.2119,0.1971,0.1971,0.1971,0.1971,0,0.1588,0.1617,0.163,0.1665,0.1691,0.1715,0.1752,0.1798,0.184,0.1868,0.194,0.196,0.2007,0.2013,0.201,0.2076,0.2077,0.2052,0.2032,0.2084,0.212,0.2132,0.1975,0.1974,0.1974,0.1973,0,0,0.1577,0.1627,0.1635,0.1655,0.1706,0.1723,0.1781,0.1833,0.1883,0.194,0.2003,0.2046,0.2083,0.2095,0.2106,0.2137,0.2215,0.2131,0.2131,0.2169,0.2309,0.2169,0.2168,0.2208,0.2211,0.2212,0.2314,0,0.1575,0.1607,0.1637,0.1675,0.1694,0.175,0.1795,0.1858,0.1918,0.1989,0.2043,0.2104,0.2105,0.2145,0.2181,0.2207,0.2249,0.2191,0.2254,0.2257,0.2125,0.2177,0.2219,0.2323,0.2326,0.2328,0.2329,0,0.1566,0.1592,0.1627,0.1684,0.1701,0.1739,0.1832,0.1879,0.1984,0.2037,0.2123,0.2168,0.2253,0.2231,0.2327,0.2297,0.2319,0.2329,0.2332,0.2192,0.2138,0.2259,0.2351,0.2349,0.2348,0.2346,0.2345,0,0.1527,0.1582,0.1612,0.1631,0.1703,0.1753,0.1807,0.1907,0.1965,0.2087,0.2151,0.2243,0.2315,0.2358,0.2409,0.2381,0.2497,0.245,0.2348,0.2339,0.2414,0.2403,0.2515,0.2515,0.2515,0.2515,0.2514,0,0.149,0.1519,0.1607,0.162,0.1682,0.1746,0.1828,0.19,0.2013,0.2081,0.2188,0.2255,0.2353,0.2431,0.2447,0.2446,0.2538,0.2372,0.2356,0.2433,0.2423,0.2423,0.2411,0.2519,0.2518,0.2517,0.2516,0,0.1429,0.1482,0.1525,0.162,0.1662,0.1713,0.1841,0.1892,0.2015,0.2113,0.2163,0.2303,0.2395,0.2476,0.2553,0.2487,0.2495,0.2472,0.2581,0.2567,0.2306,0.2296,0.2354,0.235,0.2346,0.2343,0.2341,0,0.1393,0.1411,0.1522,0.156,0.161,0.1702,0.1761,0.1887,0.1942,0.2119,0.2152,0.2302,0.2378,0.239,0.247,0.2502,0.2469,0.2457,0.2347,0.2311,0.2291,0.2286,0.228,0.2335,0.2334,0.2333,0.2333,0,0.1324,0.1382,0.1416,0.1501,0.1572,0.1631,0.1728,0.1757,0.1895,0.2034,0.2096,0.2147,0.2249,0.2302,0.2358,0.2366,0.2446,0.2419,0.2425,0.2322,0.2289,0.2271,0.227,0.2321,0.2322,0.2323,0.2324,0,0.1282,0.1291,0.1354,0.1418,0.1498,0.1522,0.1587,0.1652,0.1724,0.1915,0.1935,0.2087,0.2227,0.2234,0.228,0.2286,0.2234,0.2138,0.2157,0.2171,0.2061,0.1989,0.1928,0,0,0,0,0,0.1228,0.1224,0.1268,0.131,0.1384,0.1436,0.1543,0.1608,0.1753,0.1751,0.1835,0.1918,0.1982,0.2064,0.2033,0.2191,0.2239,0.2143,0.2136,0.2254,0.2268,0.2152,0,0,0,0,0,0,0.1187,0.1215,0.1223,0.121,0.1229,0.1288,0.1352,0.1451,0.1458,0.1621,0.1676,0.1802,0.1904,0.199,0.2,0.2023,0.1977,0.2246,0.224,0.2246,0.2258,0.227,0.2156,0,0,0,0,0]},{"header":{"parameterUnit":"m.s-1","parameterCategory":2,"la1":30.2991,"la2":30.254,"lo1":-89.0895,"lo2":-89.0444,"dy":0.0017,"dx":0.0017,"nx":28,"ny":28,"refTime":"2023-09-08T09:00:00:Z","depth":"4","parameterNumber":3,"parameterNumberName":"V-component_of_CURRENTS"},"data":[0,0,0,0,0,0,0,0,0,0,0,0,0,0,0,0,0,0,0,0,0,0,0,0,0,0,0,0,0,0,0,0,0,0,0,0,0,0,0,0,0,0,0,0,0,0,0,0,0,0,0,0,0,0,0,0,0,0,0.0197,0.0197,0,0.0173,0.0173,0.0172,0.0156,0.0156,0.0156,0.0156,0.0122,0.0122,0.0121,0,0,0,0,0,0,0,0,0,0,0,0,0,0.0204,0.0204,0.0197,0.0197,0.0196,0.0173,0.0173,0.0172,0.0156,0.0156,0.0156,0.0156,0.0123,0.0122,0.0121,0,0,0,0,0,0,0,0,0,0,0,0,0,0.0192,0.0204,0.0197,0.0186,0.0185,0.0173,0.0173,0.0172,0.0156,0.0156,0.0156,0.0155,0.0123,0.0122,0.0121,0.0115,0,0,0.0117,0.0116,0,0,0,0,0,0,0,0,0.0193,0.0192,0.0188,0.0187,0.0185,0.0168,0.0163,0.0153,0.0156,0.0166,0.0156,0.0155,0.0137,0.0135,0.013,0.0114,0.0112,0.0117,0.0116,0.0115,0.0115,0,0,0,0,0,0,0,0.0194,0.0193,0.0187,0.0187,0.0186,0.0174,0.0172,0.0161,0.0152,0.0165,0.0164,0.0162,0.0136,0.0131,0.0129,0.0112,0.0117,0.0116,0.0115,0.0114,0.0102,0.0103,0,0,0,0,0,0,0.0199,0.0194,0.0188,0.0186,0.0189,0.0174,0.0172,0.0173,0.0152,0.0149,0.0163,0.0162,0.0133,0.013,0.0128,0.0146,0.0115,0.0114,0.0114,0.0102,0.0102,0.0103,0,0,0,0,0,0,0.02,0.0199,0.0189,0.019,0.0187,0.0174,0.0175,0.0173,0.0172,0.015,0.0147,0.0165,0.0133,0.0129,0.0128,0.0143,0.0114,0.0113,0.0101,0.0102,0.0102,0.0165,0,0,0,0,0,0,0.02,0.0199,0.0203,0.019,0.0188,0.019,0.0175,0.0172,0.0171,0.017,0.0151,0.0148,0.0133,0.013,0.0127,0.0141,0.0112,0.0101,0.0102,0.0102,0.0163,0.0168,0.0173,0,0,0,0,0,0.02,0.0207,0.0203,0.0202,0.0193,0.019,0.0188,0.0177,0.0171,0.0175,0.0165,0.0149,0.0133,0.013,0.0126,0.014,0.01,0.0101,0.0102,0.0161,0.0167,0.0173,0,0,0,0,0,0,0.0213,0.0206,0.0201,0.0206,0.0202,0.0188,0.0189,0.0182,0.0177,0.0178,0.0156,0.0152,0.0155,0.0137,0.0135,0.0137,0.0113,0.0113,0.0158,0.0164,0.0169,0.0176,0.0111,0,0,0,0,0,0.0217,0.0222,0.0212,0.0218,0.0215,0.0203,0.0201,0.0197,0.019,0.0187,0.0175,0.0162,0.0155,0.0152,0.014,0.0144,0.0112,0.0148,0.0153,0.0158,0.016,0.0124,0.0126,0.0106,0.0106,0.0106,0,0,0.0223,0.0221,0.0223,0.0221,0.0215,0.0225,0.0202,0.0205,0.0219,0.0185,0.0198,0.0178,0.0158,0.0164,0.0163,0.0153,0.0147,0.0159,0.0163,0.0163,0.0125,0.0127,0.0129,0.0106,0.0106,0.0106,0,0,0.0243,0.0236,0.0248,0.0249,0.0248,0.0243,0.0247,0.0238,0.024,0.0248,0.0227,0.0217,0.0208,0.0196,0.019,0.0212,0.0172,0.0208,0.0243,0.0209,0.021,0.0211,0.0175,0.0172,0.0214,0.0214,0.0214,0,0.0251,0.0267,0.0252,0.0266,0.0276,0.0255,0.0277,0.0275,0.027,0.0274,0.0262,0.0243,0.0224,0.0228,0.0237,0.0224,0.0196,0.0225,0.0215,0.0215,0.0215,0.0178,0.0174,0.0217,0.0217,0.0216,0.0216,0,0.028,0.0296,0.0304,0.0319,0.0326,0.034,0.0338,0.0344,0.0341,0.0335,0.0336,0.0307,0.0295,0.0287,0.0271,0.0265,0.0242,0.0224,0.0202,0.0221,0.0181,0.0175,0.0221,0.022,0.0219,0.0219,0,0,0.0297,0.0321,0.0327,0.0349,0.0359,0.0371,0.0393,0.0406,0.0426,0.0406,0.0421,0.0398,0.0371,0.0361,0.0333,0.0304,0.0277,0.0269,0.0266,0.0238,0.0198,0.0173,0.0164,0.0257,0.0256,0.0256,0.0172,0,0.0329,0.0374,0.0378,0.0427,0.0451,0.0447,0.0475,0.0483,0.0481,0.0487,0.0447,0.0449,0.0404,0.0403,0.0364,0.03,0.0265,0.0301,0.0181,0.0177,0.0155,0.0158,0.0254,0.0167,0.0166,0.0165,0.0164,0,0.0359,0.0389,0.0443,0.0494,0.0504,0.0532,0.0572,0.0595,0.059,0.0588,0.0565,0.0528,0.0487,0.0446,0.0337,0.0362,0.0286,0.0229,0.0224,0.0174,0.0142,0.0143,0.0154,0.0155,0.0156,0.0156,0.0157,0,0.0385,0.0438,0.0489,0.0504,0.055,0.0581,0.061,0.0625,0.0658,0.065,0.0659,0.0594,0.057,0.0466,0.0341,0.034,0.021,0.0193,0.0096,0.0093,0.0114,0.0113,0.0111,0.0111,0.0112,0.0112,0.0112,0,0.0418,0.046,0.0508,0.0536,0.0606,0.0625,0.0695,0.0709,0.0737,0.0773,0.0715,0.0712,0.0573,0.0479,0.0358,0.0208,0.0219,0.0099,0.007,0.0142,0.0146,0.011,0.0111,0.0109,0.0109,0.011,0.0111,0,0.0438,0.0467,0.0532,0.0595,0.0621,0.0674,0.0759,0.0805,0.0823,0.0865,0.0866,0.0797,0.0672,0.0521,0.0347,0.0239,0.0096,0.0039,0.0128,0.0105,-0.0002,0.0003,-0.0073,-0.0075,-0.0076,-0.0077,-0.0078,0,0.045,0.0484,0.0575,0.062,0.0655,0.0735,0.0793,0.0844,0.0892,0.0912,0.0928,0.0831,0.0758,0.05,0.0331,0.0094,0.0057,-0.0019,-0.0014,-0.0,-0.0022,-0.0014,-0.0007,-0.008,-0.0081,-0.0081,-0.0081,0,0.0471,0.0507,0.0564,0.066,0.0731,0.0817,0.0899,0.0937,0.0991,0.1006,0.0975,0.0845,0.07,0.0495,0.0308,0.0137,0.003,-0.0034,-0.0033,-0.0028,-0.001,-0.0028,-0.002,-0.0086,-0.0085,-0.0085,-0.0085,0,0.049,0.0531,0.0608,0.0694,0.0785,0.0868,0.0915,0.0966,0.1013,0.1028,0.1008,0.086,0.0777,0.0517,0.0345,0.0172,0.0126,0.0069,0.0065,0.0068,0.0128,0.0173,0.0126,0,0,0,0,0,0.0504,0.0552,0.0632,0.0728,0.0821,0.0878,0.0972,0.101,0.1051,0.1036,0.1028,0.0892,0.064,0.0533,0.0356,0.0304,0.0087,0.0088,0.0016,-0.0112,-0.0107,-0.0063,0,0,0,0,0,0,0.0511,0.0587,0.0629,0.0739,0.0807,0.0913,0.0976,0.1008,0.1002,0.1012,0.0883,0.0835,0.059,0.0738,0.0347,0.0296,0.0223,-0.0022,-0.0027,-0.0115,-0.011,-0.0106,-0.0059,0,0,0,0,0]}]]